Location: Bogis-Bossey
(46.3500°N, 6.1667°E)
Time: 17:08:48
(UTC+00:00)

Meteor 1-13 Rocket - Pass Details

Date: 17 August 2022
Orbit: 830 x 913 km, 81.3° (Epoch: 30 September)

Event Time Altitude Azimuth Distance (km) Brightness Sun altitude
Rises 22:29:20 0° 346° (NNW) 3,505 8.7 -28.4°
Reaches altitude 10° 22:31:50 10° 343° (NNW) 2,549 7.6 -28.6°
Maximum altitude 22:37:31 62° 264° (W) 974 4.4 -28.9°
Enters shadow 22:37:32 62° 264° (W) 974 4.4 -28.9°
